Regional Weather Roundup
Issued by NWS

Home | Current Version | Previous Version | Text Only | Print | Product List | Glossary Off
Versions: 1 2 3 4 5 6 7 8 9 10 11 12 13 14 15 16 17 18 19 20 21 22 23 24 25 26 27 28 29 30 31 32 33 34 35 36 37 38 39 40 41 42 43 44 45 46 47 48 49 50

000
ASUS45 KBOU 252007
RWRCO

WEATHER ROUNDUP FOR COLORADO
NATIONAL WEATHER SERVICE DENVER/BOULDER CO
100 PM MST SUN JAN 25 2015

NOTE: "FAIR" INDICATES FEW OR NO CLOUDS BELOW 12000 FEET WITH NO
SIGNIFICANT WEATHER AND/OR OBSTRUCTIONS TO VISIBILITY.

COZ001>005-013-030-031-252100-
...NORTHWEST COLORADO...

CITY           SKY/WX    TMP DP  RH WIND       PRES   REMARKS
CRAIG          MOSUNNY   34  23  64 CALM      30.36F
HAYDEN         MOSUNNY   39  25  56 E8        30.36F
MEEKER         PTSUNNY   35  20  54 CALM      30.35F
MOUNT WERNER   NOT AVBL
STEAMBOAT SPGS CLOUDY    37  27  68 E6        30.36F
WALDEN         SUNNY     36  25  64 S12       30.31F
$$

COZ006>008-011-252100-
...WEST CENTRAL VALLEYS...

CITY           SKY/WX    TMP DP  RH WIND       PRES   REMARKS
GRAND JUNCTION SUNNY     45  18  34 CALM      30.35F
MONTROSE       SUNNY     45  19  35 N7        30.37F
EAGLE          MOSUNNY   41  23  48 CALM      30.36F
RIFLE          MOSUNNY   44  19  36 CALM      30.35F
DELTA          SUNNY     46  19  33 CALM      30.36F
NUCLA          SUNNY     48  21  34 NW6       30.37F
$$

COZ017>023-064>068-252100-
...SOUTHWEST COLORADO...

CITY           SKY/WX    TMP DP  RH WIND       PRES   REMARKS
DURANGO        SUNNY     42  22  44 NE3       30.29F
CORTEZ         SUNNY     47  23  38 S10       30.30F
PAGOSA SPRINGS SUNNY     45  16  31 CALM      30.30F
TELLURIDE      SUNNY     46  19  34 SW3       30.39F
WOLF CREEK PAS NOT AVBL
$$

COZ009-010-012-014-032>034-037-058>063-252100-
...CENTRAL COLORADO...

CITY           SKY/WX    TMP DP  RH WIND       PRES   REMARKS
ASPEN          SUNNY     44  24  45 N8        30.34F
BUENA VISTA    MOSUNNY   47  22  36 NW21G33   30.25F
COPPER MTN     CLOUDY    28  23  80 W21G26    30.40F WCI  15
BERTHOUD PASS  NOT AVBL
COTTONWOOD PAS MOSUNNY   45  18  33 NW13G25   30.30F
GUNNISON       SUNNY     16   5  62 CALM      30.42F
KREMMLING      CLOUDY    41  27  56 N6        30.35F
LEADVILLE      MOSUNNY   36  20  52 NW12G21   30.32F
SALIDA         MOSUNNY   52  18  26 NW3       30.32F
SUNLIGHT       MOSUNNY   32  27  80 NW3       30.43
WILKERSON PASS SUNNY     34  18  51 NW10G24   30.34F WCI  26
$$

COZ069>075-252100-
...SAN LUIS VALLEY/SANGRE DE CRISTO MOUNTAINS...

CITY           SKY/WX    TMP DP  RH WIND       PRES   REMARKS
ALAMOSA        MOSUNNY   46  17  31 CALM      30.29F
LA VETA PASS   NOT AVBL
SAGUACHE       SUNNY     36  23  60 SE12      30.31S
$$

COZ035-036-038>040-252100-
...NORTHERN COLORADO FRONT RANGE...

CITY           SKY/WX    TMP DP  RH WIND       PRES   REMARKS
DENVER INTL AP PTSUNNY   58  24  27 NW6       30.12F
DMNS CITY PARK   N/A     60  23  24 SW14      30.11F
AURORA         PTSUNNY   56  24  28 N8        30.14F
FRONT RANGE AP NOT AVBL
ERIE MUNI ARPT SUNNY     60  25  25 W7G21     30.11F
BOULDER MUN AP SUNNY     59  27  29 W18G25    30.11F
CENTENNIAL     PTSUNNY   56  25  30 N14       30.14F
BROOMFIELD     MOSUNNY   61  25  25 NW17G26   30.13F
FORT COLLINS   SUNNY     57  30  35 SE9       30.11F
LONGMONT       SUNNY     62  26  26 E8        30.12F
$$

COZ041-046-047-076>085-087-088-252100-
...PIKES PEAK/PALMER DIVIDE AND SOUTHERN FOOTHILLS...

CITY           SKY/WX    TMP DP  RH WIND       PRES   REMARKS
COLO. SPRINGS  MOSUNNY   50  25  37 SW5       30.18F
A. F. ACADEMY  MOSUNNY   46  23  40 S8        30.16F
ELLICOTT       SUNNY    N/A N/A N/A W5        30.16F
FALCON         SUNNY     52  23  33 N6        30.18F
FORT CARSON    MOSUNNY   49  27  42 S2        30.16F
LIMON          SUNNY     53  25  33 NW18      30.13F
MONUMENT HILL  MOSUNNY   46  28  49 N8        30.17F
TRINIDAD       SUNNY     50  29  44 SE6       30.19F
$$

COZ042>045-048>051-090-091-252100-
...NORTHEAST COLORADO...

CITY           SKY/WX    TMP DP  RH WIND       PRES   REMARKS
GREELEY ARPT   MOSUNNY   52  30  43 CALM      30.10F
AKRON          PTSUNNY   50  32  50 NW12      30.10F
BURLINGTON     SUNNY     51  31  46 N18G25    30.10F
WRAY           SUNNY     56  31  38 NW17G24   30.09F
STERLING       CLOUDY    54  36  50 NW18      30.08F
HOLYOKE        SUNNY     55  32  41 NW18G28   30.08F
FORT MORGAN    MOSUNNY   49  29  46 W10       30.13F
$$

COZ086-089-092>099-252100-
...SOUTHEAST COLORADO...

CITY           SKY/WX    TMP DP  RH WIND       PRES   REMARKS
PUEBLO         MOSUNNY   52  28  39 CALM      30.16F
LA JUNTA       SUNNY     56  32  40 SW10      30.15F
LAMAR          MOSUNNY   55  32  41 W15       30.13F
SPRINGFIELD      N/A     55  27  34 NW16G22   30.15F
$$


USA.gov is the U.S. government's official web portal to all federal, state and local government web resources and services.